Weather History for Prestwick, United Kingdom

Change the Weather History Date:

Thursday, October 20, 2011

  Actual Average Record
Temperature  
Mean Temperature 45 °F -  
Max Temperature 51 °F 50 °F 60 °F (2001)
Min Temperature 39 °F 40 °F 26 °F (2003)
Degree Days  
Heating Degree Days 20    
Moisture  
Dew Point 43 °F    
Average Humidity 84    
Maximum Humidity 94    
Minimum Humidity 76    
Precipitation  
Precipitation 0.00 in - - ()
Sea Level Pressure  
Sea Level Pressure 30.17 in    
Wind  
Wind Speed 7 mph ()    
Max Wind Speed 15 mph    
Max Gust Speed -    
Visibility 6.0 miles    
Events Rain    
Averages and records for this station are not official NWS values.
T = Trace of Precipitation, MM = Missing Value Source: Averaged Metar Reports

Daily Weather History Graph

Daily Weather History Graph

Search for Another Location

Airport:

Trip Planner

Search our weather history database for the weather conditions in past years. The results will help you decide how hot, cold, wet, or windy it might be!

Date:

Astronomy

Oct. 20, 2011 Rise Set
Actual Time 7:57 AM BST 6:07 PM BST
Civil Twilight 7:20 AM BST 6:44 PM BST
Nautical Twilight 6:37 AM BST 7:27 PM BST
Astronomical Twilight 5:55 AM BST 8:09 PM BST
Moon No Moon Rise 3:16 PM BST (10/20)
Length of Visible Light 11h 24m
Length of Day
10h 09m
Waning Gibbous, 47% of the Moon is Illuminated
Oct 20
Waning Gibbous
Oct 26
New
Nov 2
First Quarter
Nov 10
Full
Nov 18
Last Quarter

Hourly Weather History & Observations

Time (BST) Temp. Windchill Dew Point Humidity Pressure Visibility Wind Dir Wind Speed Gust Speed Precip Events Conditions
12:20 AM 41.0 °F 39.0 °F 35.6 °F 81% 30.24 in 6.2 mi Variable 3.5 mph - N/A   Partly Cloudy
12:50 AM 39.2 °F - 35.6 °F 87% 30.24 in 6.2 mi East 2.3 mph - N/A   Mostly Cloudy
1:50 AM 41.0 °F - 37.4 °F 87% 30.24 in 6.2 mi Calm Calm - N/A   Unknown
2:50 AM 44.6 °F 41.4 °F 39.2 °F 81% 30.24 in 6.2 mi WSW 5.8 mph - N/A   Unknown
3:50 AM 44.6 °F - 39.2 °F 81% 30.24 in 6.2 mi Calm Calm - N/A   Scattered Clouds
4:50 AM 41.0 °F - 37.4 °F 87% 30.24 in 6.2 mi ESE 2.3 mph - N/A   Scattered Clouds
5:50 AM 39.2 °F 37.0 °F 35.6 °F 87% 30.24 in 6.2 mi ESE 3.5 mph - N/A   Scattered Clouds
6:50 AM 39.2 °F - 37.4 °F 93% 30.24 in 6.2 mi Calm Calm - N/A   Scattered Clouds
7:20 AM 39.2 °F - 37.4 °F 93% 30.24 in 6.2 mi Variable 2.3 mph - N/A   Scattered Clouds
7:50 AM 41.0 °F - 39.2 °F 93% 30.24 in 6.2 mi East 2.3 mph - N/A   Scattered Clouds
8:20 AM 46.4 °F 42.9 °F 42.8 °F 87% 30.24 in 6.2 mi SW 6.9 mph - N/A   Scattered Clouds
8:50 AM 46.4 °F 41.9 °F 42.8 °F 87% 30.24 in 6.2 mi WSW 9.2 mph - N/A   Scattered Clouds
9:20 AM 48.2 °F - 42.8 °F 82% 30.24 in 6.2 mi WSW 9.2 mph - N/A   Scattered Clouds
9:50 AM 48.2 °F - 42.8 °F 82% 30.24 in 6.2 mi WSW 10.4 mph - N/A   Scattered Clouds
10:20 AM 48.2 °F - 42.8 °F 82% 30.24 in 6.2 mi WSW 12.7 mph - N/A   Scattered Clouds
10:50 AM 50.0 °F - 42.8 °F 76% 30.24 in 6.2 mi WSW 11.5 mph - N/A Rain Light Rain Showers
11:20 AM 50.0 °F - 42.8 °F 76% 30.24 in 6.2 mi SW 12.7 mph - N/A   Scattered Clouds
11:50 AM 50.0 °F - 44.6 °F 82% 30.24 in 6.2 mi SSW 13.8 mph - N/A   Scattered Clouds
12:20 PM 50.0 °F - 44.6 °F 82% 30.24 in 6.2 mi SW 13.8 mph - N/A   Mostly Cloudy
12:50 PM 50.0 °F - 44.6 °F 82% 30.21 in 6.2 mi SSW 13.8 mph - N/A   Mostly Cloudy
1:20 PM 51.8 °F - 44.6 °F 76% 30.21 in 6.2 mi SW 13.8 mph - N/A Rain Light Rain
1:50 PM 50.0 °F - 42.8 °F 76% 30.21 in 6.2 mi SW 13.8 mph - N/A Rain Light Rain
2:20 PM 50.0 °F - 42.8 °F 76% 30.18 in 6.2 mi SW 12.7 mph - N/A Rain Light Rain
2:50 PM 50.0 °F - 42.8 °F 76% 30.18 in 6.2 mi SSW 10.4 mph - N/A Rain Light Rain
3:20 PM 50.0 °F - 42.8 °F 76% 30.18 in 6.2 mi SSW 11.5 mph - N/A   Mostly Cloudy
3:50 PM 50.0 °F - 42.8 °F 76% 30.15 in 6.2 mi South 13.8 mph - N/A Rain Light Rain
4:20 PM 48.2 °F - 44.6 °F 87% 30.15 in 6.2 mi South 10.4 mph - N/A Rain Light Rain
4:50 PM 48.2 °F - 42.8 °F 82% 30.15 in 6.2 mi South 10.4 mph - N/A Rain Light Rain
5:20 PM 48.2 °F - 42.8 °F 82% 30.15 in 6.2 mi South 11.5 mph - N/A Rain Light Rain
5:50 PM 48.2 °F - 42.8 °F 82% 30.12 in 6.2 mi SSE 9.2 mph - N/A Rain Light Rain
6:20 PM 48.2 °F - 44.6 °F 87% 30.12 in 6.2 mi South 11.5 mph - N/A Rain Light Rain
6:50 PM 48.2 °F - 44.6 °F 87% 30.12 in 6.2 mi South 10.4 mph - N/A Rain Light Rain
7:20 PM 48.2 °F - 44.6 °F 87% 30.09 in 6.2 mi South 12.7 mph - N/A Rain Light Rain
7:50 PM 48.2 °F - 44.6 °F 87% 30.09 in 3.7 mi South 11.5 mph - N/A Rain Light Rain
8:20 PM 48.2 °F - 44.6 °F 87% 30.09 in 4.3 mi South 13.8 mph - N/A Rain Light Rain
8:50 PM 48.2 °F - 46.4 °F 93% 30.06 in 5.0 mi South 13.8 mph - N/A Rain Light Rain
9:20 PM 48.2 °F - 46.4 °F 93% 30.06 in 5.0 mi South 12.7 mph - N/A Rain Light Rain
9:50 PM 50.0 °F - 46.4 °F 87% 30.06 in 5.0 mi South 12.7 mph - N/A Rain Light Rain
10:20 PM 50.0 °F - 46.4 °F 87% 30.04 in 5.6 mi South 15.0 mph - N/A Rain Light Rain
10:50 PM 50.0 °F - 48.2 °F 94% 30.04 in 5.6 mi South 12.7 mph - N/A Rain Light Rain
11:20 PM 50.0 °F - 48.2 °F 94% 30.04 in 5.6 mi South 13.8 mph - N/A Rain Light Rain
11:50 PM 51.8 °F - 48.2 °F 88% 30.01 in 5.6 mi South 11.5 mph - N/A Rain Light Rain